Dewpoint
72 72 71 71 71 71 70 71 71 71 70 71 70 70 70 71 70 70 71 71 71 71 71 73 74 74 73 74 74 75 75 75 75 76 75 74 74 74 74 74 74 74 74 74 75 74 73 72 72 73 74 74 74 75 74 73 73 74 73 72 71 71 70 67 65 66 68 70 72 72 73 73 71 73 72 71 71 72 75 75 76 76 75 74 74
73 73 73 71 70 70 70 70 71 71 70 70 70 69 69 70 70 70 69 70 70 71 71 71 73 73 73 73 74 74 74 74 74 75 75 74 74 74 74 74 74 74 73 74 74 74 73 72 71 71 73 74 74 73 73 73 73 72 72 72 70 71 71 68 67 66 66 69 70 71 73 74 71 72 70 72 73 74 73 73 74 75 75 75 74
72 72 72 72 71 70 70 70 70 70 69 69 69 69 68 68 69 69 69 69 69 70 71 71 72 73 73 73 73 73 73 74 74 74 75 74 74 73 73 73 73 73 73 73 73 73 72 72 72 72 73 73 73 73 73 72 72 72 72 72 71 70 71 71 69 68 68 69 70 71 71 72 71 72 73 74 74 74 73 73 73 73 74 73 74
73 72 72 72 72 71 70 70 69 69 69 69 69 69 68 67 69 68 67 68 68 69 71 71 71 72 72 72 72 72 72 73 73 73 74 74 74 73 73 73 73 73 73 73 73 73 73 72 72 72 72 72 72 72 72 71 71 70 70 71 72 71 70 72 71 69 69 68 69 70 71 71 72 73 74 74 73 73 72 73 73 73 73 74 74
73 72 71 71 72 71 70 70 70 69 69 69 68 68 68 67 67 68 67 66 67 68 69 71 71 72 71 71 71 71 71 72 72 72 73 74 74 73 73 73 73 73 73 73 75 73 73 72 71 71 71 71 71 71 71 71 71 70 70 70 71 71 72 71 71 71 69 69 69 70 71 72 73 73 74 73 72 72 73 73 73 73 73 74 75
73 72 72 71 70 70 72 72 71 70 70 70 69 68 67 67 66 67 67 66 66 67 67 68 70 71 71 71 71 71 71 71 72 72 71 72 73 73 73 72 72 73 73 73 73 73 73 73 72 71 71 70 70 71 71 71 71 70 69 69 70 71 71 71 71 70 70 70 69 69 69 71 71 71 72 72 72 72 72 72 72 72 73 72 72
72 72 72 71 70 71 72 71 71 71 71 70 69 69 68 66 65 65 66 66 65 65 66 67 68 70 71 71 71 71 71 71 72 72 71 71 72 72 72 72 72 73 73 72 72 72 73 73 72 72 71 71 70 70 70 70 71 70 70 69 69 69 71 70 70 70 70 70 69 70 70 71 71 70 71 71 72 72 71 71 71 71 71 72 72
72 71 71 71 71 72 72 72 71 72 71 71 71 69 68 68 68 68 67 66 65 64 64 66 67 68 69 71 71 71 71 70 71 71 71 70 70 72 72 71 71 71 72 72 72 72 72 72 72 71 71 71 71 70 70 69 69 69 69 70 70 69 68 68 68 69 69 69 69 69 68 69 69 71 72 70 69 68 70 71 69 68 68 69 72
72 72 72 71 71 72 72 72 72 71 72 71 71 71 70 69 68 68 69 67 66 65 64 63 65 67 67 68 70 71 71 71 70 71 71 70 69 69 70 71 71 71 71 71 71 71 71 71 71 71 72 75 74 74 73 73 69 69 69 69 69 69 69 69 68 67 67 69 69 69 68 69 70 70 70 69 68 68 67 67 68 68 69 69 70
72 72 72 71 71 72 72 72 72 71 71 71 70 70 71 70 68 67 67 66 67 68 66 64 63 65 67 67 68 69 70 70 71 69 70 71 70 69 69 70 70 70 70 70 70 70 70 70 70 74 75 76 76 74 73 74 75 71 69 69 69 68 68 68 68 68 68 67 68 68 67 67 67 68 68 68 68 68 68 68 67 68 68 68 69
72 72 72 72 72 72 72 72 72 72 72 72 71 71 70 70 70 69 67 66 66 68 69 65 63 63 65 67 67 67 67 68 68 65 66 68 71 70 70 70 70 70 69 69 69 69 69 70 69 72 76 77 75 73 73 72 72 73 74 74 73 69 67 67 67 68 68 67 67 67 68 67 68 69 69 69 69 68 68 67 66 66 66 65 65
68 69 71 72 73 72 73 73 72 72 72 72 71 71 71 71 69 69 68 66 66 67 68 67 65 63 63 64 66 67 67 67 64 64 64 64 68 70 70 69 70 70 70 69 69 69 69 69 69 69 69 69 70 72 73 72 70 70 70 71 72 72 72 69 68 68 69 68 69 69 69 69 69 69 69 69 68 68 68 67 67 66 67 66 65
68 69 69 70 70 71 73 73 72 72 72 72 72 72 72 71 71 70 69 69 67 67 68 70 69 66 63 63 64 66 67 65 63 62 63 63 63 68 70 70 69 69 69 70 69 69 69 69 69 69 68 73 74 70 69 70 71 69 69 69 70 69 68 68 69 69 68 69 68 68 69 69 69 69 69 68 67 67 68 67 67 66 66 66 66
67 68 68 69 70 70 72 72 72 73 73 73 73 73 72 71 72 72 72 72 70 69 68 68 69 70 69 65 64 64 65 65 61 61 61 61 62 64 69 70 70 70 69 69 69 69 69 69 69 69 68 68 68 68 68 69 69 70 71 70 70 70 70 68 68 68 70 70 69 68 69 70 69 68 69 69 69 68 68 67 68 68 68 68 69
67 67 68 68 69 69 70 71 72 72 73 73 72 72 72 72 72 72 72 72 71 70 70 69 69 71 71 71 70 68 64 64 61 59 58 59 61 63 68 69 70 70 70 70 69 69 69 69 69 68 68 68 68 68 66 66 68 69 69 69 69 69 68 68 69 69 69 70 70 70 69 69 70 70 70 70 70 69 69 68 68 68 69 70 70
66 67 67 68 68 69 69 70 70 71 72 72 72 73 73 72 72 72 73 72 72 72 72 72 71 71 71 71 70 70 70 62 60 58 57 57 58 63 65 67 68 69 69 70 70 69 69 69 69 69 68 68 69 67 69 68 66 66 67 67 68 68 68 69 66 67 69 68 68 68 68 68 66 67 67 66 65 66 68 68 68 68 67 66 66
64 64 67 68 69 69 69 69 69 70 70 70 71 71 72 72 73 73 73 72 72 72 72 72 71 72 72 71 71 70 70 65 60 55 54 55 58 61 63 64 66 67 68 69 70 69 69 69 69 68 68 68 68 63 63 68 67 66 66 66 66 66 67 68 65 63 63 63 62 63 62 62 61 60 59 60 63 64 64 63 63 64 64 64 64
63 64 64 66 67 67 68 68 69 69 70 69 69 70 71 72 72 73 73 73 72 72 73 72 73 72 72 71 71 71 70 66 60 57 55 55 61 62 63 64 65 65 66 67 68 68 68 72 73 69 68 68 65 63 63 66 66 66 65 65 65 66 67 68 68 68 62 61 61 61 62 62 62 61 61 61 61 64 63 63 64 63 62 63 62
60 62 63 64 66 66 67 66 67 68 69 68 68 69 69 70 72 72 71 72 72 73 73 73 73 72 73 72 73 72 71 67 57 57 56 53 60 63 63 64 65 64 65 65 66 67 67 70 72 71 69 68 63 62 62 66 67 67 66 66 65 65 65 65 66 67 68 69 69 68 68 67 67 66 67 64 65 70 66 64 65 63 62 63 63
57 60 62 62 65 67 65 66 65 65 66 69 66 66 69 70 70 71 71 72 72 73 73 73 73 73 73 73 73 72 72 71 64 55 54 53 57 66 65 66 66 65 65 65 65 65 66 67 68 64 62 62 61 60 60 60 67 68 68 67 66 66 66 66 67 66 66 67 66 67 68 69 69 70 70 69 69 70 68 66 65 64 64 63 64
57 58 60 62 61 60 62 62 63 64 64 66 67 68 67 68 69 70 70 71 71 71 72 72 73 72 73 73 73 72 72 71 66 54 53 54 56 62 67 68 68 68 67 67 66 66 66 66 67 65 60 58 58 57 56 57 62 68 68 68 67 67 68 66 67 73 69 68 67 67 67 67 67 68 69 69 69 68 68 66 66 65 65 64 63
57 58 60 61 59 58 58 60 64 65 66 66 65 65 65 67 69 69 69 69 69 70 70 70 70 71 71 73 73 73 74 73 70 57 53 52 53 56 67 69 70 69 69 68 68 67 67 67 67 65 60 58 56 55 55 56 56 65 67 61 61 61 66 68 67 67 67 68 68 68 68 68 68 68 68 69 69 69 69 68 67 66 65 65 65
57 58 59 58 58 59 59 60 61 61 62 64 64 64 65 65 67 69 67 68 67 67 67 68 69 70 70 71 72 73 73 73 69 69 56 51 51 51 57 64 64 70 69 68 68 68 68 68 69 69 62 58 55 55 55 55 57 61 59 58 58 59 64 65 66 67 67 68 68 68 68 68 68 68 69 69 70 70 70 70 69 68 67 67 66
58 58 59 58 58 58 59 60 59 58 59 60 63 64 65 65 67 68 67 66 65 63 65 66 68 69 69 69 70 71 72 72 71 66 67 62 56 53 52 53 57 66 69 68 69 69 68 68 68 62 55 51 52 54 54 55 60 57 56 57 57 60 63 64 64 66 67 67 67 68 68 68 68 69 69 69 69 69 70 71 71 71 70 69 69
58 58 57 57 57 57 57 57 57 58 58 60 61 64 64 66 67 67 68 65 64 63 64 66 68 69 69 69 69 70 71 71 72 70 66 64 59 56 53 53 54 53 61 66 68 69 65 58 55 54 54 53 52 53 56 56 53 52 54 56 60 63 64 64 65 66 66 67 67 68 68 68 69 69 69 70 70 70 70 70 70 71 71 72 72
58 57 56 56 56 56 57 57 57 59 60 60 60 61 61 65 66 66 66 66 64 64 66 69 69 69 69 69 69 69 70 70 71 71 71 71 68 60 55 54 57 57 58 61 59 57 56 55 55 56 58 60 64 65 65 65 61 57 56 57 61 63 64 64 65 66 66 66 67 67 68 68 68 69 70 70 70 69 69 69 69 69 69 69 69
58 55 53 53 54 55 56 57 57 57 57 58 59 60 60 63 62 64 66 67 67 67 69 69 68 68 68 68 68 69 69 68 68 69 71 71 71 70 66 61 60 59 60 61 61 61 62 62 62 59 59 60 61 62 63 65 66 66 65 64 63 63 64 66 66 66 66 66 66 67 67 68 69 69 69 69 69 69 70 69 69 69 69 69 68
55 52 52 52 53 54 55 57 56 55 56 56 56 57 58 60 58 58 58 58 61 65 66 67 65 65 65 66 67 68 67 66 66 66 68 70 70 70 70 69 66 65 65 66 67 68 69 67 66 67 67 67 66 65 65 65 65 65 66 66 66 65 66 66 67 67 67 67 67 67 67 68 68 68 68 68 69 69 69 69 69 69 69 69 68
54 52 52 52 52 56 56 54 53 53 53 54 55 56 58 58 58 59 59 60 61 62 62 62 64 63 64 65 65 64 64 65 66 62 67 60 63 67 68 69 69 70 64 54 63 66 66 67 67 68 68 68 68 68 68 68 68 68 67 68 68 67 66 66 66 66 67 67 67 67 67 67 67 68 68 68 68 69 69 69 69 69 69 69 68
52 52 53 54 54 55 55 51 51 53 52 52 53 54 58 56 56 58 58 61 57 53 54 59 61 61 62 63 64 63 63 64 61 54 50 48 48 47 46 45 44 53 53 53 60 63 65 66 66 66 67 68 68 68 68 68 68 68 68 66 68 69 68 67 67 67 67 67 67 67 67 67 67 67 68 68 68 69 69 67 69 69 68 68 68
53 53 55 54 55 55 54 52 53 53 53 53 53 55 55 56 50 51 52 55 52 48 48 46 46 49 59 62 62 59 58 55 50 48 47 45 43 43 43 43 43 44 46 56 63 65 65 66 66 67 67 68 67 68 69 69 69 69 69 69 69 69 67 68 69 67 67 67 66 66 66 67 67 67 67 67 68 68 69 69 69 69 68 68 68
52 52 52 52 54 55 54 54 55 55 54 53 53 55 55 55 56 52 51 50 50 48 47 46 44 44 46 51 58 60 57 54 51 49 47 44 44 43 43 43 43 43 44 48 60 63 64 64 65 66 67 67 67 67 68 68 69 69 69 69 69 69 70 70 69 69 68 68 67 66 67 67 67 67 67 67 66 67 68 68 69 68 68 68 68
52 51 52 53 53 55 55 54 55 54 53 53 53 53 54 54 53 53 54 51 49 49 48 46 45 47 47 47 46 47 49 49 47 45 43 43 42 43 42 41 41 40 45 56 61 62 63 64 65 65 66 66 67 67 68 68 68 69 69 69 69 69 70 70 68 69 68 69 68 68 68 68 67 67 66 66 66 67 67 67 68 68 68 68 68
52 53 54 53 52 51 52 52 52 52 52 51 52 52 52 52 51 51 52 54 56 54 52 49 50 48 48 48 48 48 47 45 44 43 42 43 43 44 43 49 46 42 49 59 61 62 63 63 64 65 65 66 67 67 67 68 68 68 69 69 70 70 71 70 69 68 67 68 68 68 68 68 68 68 68 68 68 68 67 67 67 68 68 68 68
52 54 56 55 53 51 51 51 51 51 51 52 51 51 51 52 53 53 52 53 54 56 58 58 55 51 53 51 49 49 48 46 45 44 44 43 45 45 41 57 60 56 53 55 59 61 62 63 63 64 65 66 66 67 67 68 68 68 69 69 69 70 70 70 69 69 69 69 69 69 68 68 69 68 68 68 68 68 68 68 68 68 68 68 68
50 51 52 53 52 52 52 51 51 51 51 51 52 53 53 53 53 53 52 53 55 56 57 56 56 54 51 50 49 48 47 45 43 45 45 45 45 47 60 60 60 60 61 63 64 64 64 64 64 64 65 66 67 67 68 69 69 69 70 70 70 70 71 71 70 69 69 69 69 68 67 68 68 67 68 68 68 68 69 68 68 68 68 68 68
49 50 51 52 53 53 53 53 52 53 55 54 53 52 52 53 54 53 53 53 55 55 56 56 57 58 56 57 56 53 49 45 44 43 44 46 44 55 59 60 60 61 62 62 60 60 59 59 59 59 60 60 61 63 65 66 66 67 66 68 68 69 69 70 70 70 70 69 69 69 68 68 68 68 68 68 67 68 68 68 68 67 67 66 65
48 49 50 52 52 53 53 53 53 54 55 55 54 53 54 53 53 54 55 54 54 55 57 56 57 54 53 53 59 61 61 50 42 41 41 43 52 57 59 59 60 59 58 57 57 56 56 56 56 57 57 59 59 61 62 64 64 65 66 66 66 66 65 66 67 69 69 69 69 69 69 69 69 69 68 68 68 68 68 67 68 68 67 66 66
48 50 51 52 51 51 52 53 54 54 54 55 55 55 55 55 55 54 54 54 55 55 55 55 54 53 53 54 56 60 58 57 57 56 56 57 57 58 58 57 57 56 56 55 55 54 53 53 53 54 54 55 56 57 59 61 62 62 63 63 64 64 64 65 65 66 67 68 69 69 70 70 70 70 70 70 69 69 69 69 68 68 68 68 68
48 47 49 51 50 51 51 52 53 53 54 54 54 55 54 54 54 54 54 54 54 55 54 55 54 54 54 55 56 55 56 57 56 55 55 55 56 55 55 55 54 54 53 53 52 52 51 51 51 51 51 52 53 55 56 57 57 59 60 60 60 61 61 62 63 64 64 65 66 67 67 67 68 69 69 70 70 70 70 69 69 69 69 69 69
47 48 50 50 50 49 51 51 52 53 53 53 53 53 53 54 55 55 54 54 55 55 55 55 55 55 55 53 48 49 55 55 55 55 55 55 54 53 53 53 53 52 51 52 51 51 51 50 50 50 50 50 51 52 53 53 54 55 55 56 57 57 58 59 60 61 62 63 64 65 65 66 66 67 67 68 66 67 69 69 68 69 68 68 68
48 48 48 47 48 48 49 50 51 51 51 50 51 52 53 54 54 55 55 55 55 55 55 55 55 56 53 47 42 42 52 55 54 54 53 53 52 52 53 51 51 50 50 50 49 50 50 50 50 49 49 49 50 50 51 51 52 51 51 52 53 54 55 56 57 58 60 61 62 62 63 64 65 66 66 63 66 67 67 67 68 68 69 69 68
47 47 46 47 46 45 46 46 47 48 49 49 50 52 53 54 54 55 55 55 55 55 55 55 55 56 55 49 48 45 51 52 56 52 51 51 50 52 50 49 49 49 49 49 49 49 49 49 49 49 49 49 49 49 49 50 50 50 49 50 51 51 52 53 54 55 57 58 59 59 60 60 60 61 62 62 63 64 64 65 65 66 67 68 67
45 45 45 45 44 44 45 44 46 47 47 48 49 50 52 52 53 54 54 53 54 54 54 55 55 55 55 52 48 49 51 51 50 50 50 50 49 49 48 48 47 48 48 48 47 47 48 48 48 48 48 48 48 49 49 49 49 49 49 49 49 49 50 51 51 52 53 53 53 53 54 55 55 56 57 58 59 60 61 62 63 64 65 66 67
43 43 43 42 43 43 43 45 46 47 50 50 49 49 52 51 51 52 53 53 54 55 55 55 55 55 55 53 51 51 51 51 52 51 49 48 48 47 46 46 46 46 46 47 46 46 47 48 48 48 47 47 48 48 48 48 49 49 48 48 47 47 47 48 49 49 49 48 48 48 49 50 51 52 54 55 58 59 60 61 63 62 64 65 65
42 43 43 43 43 44 43 43 46 46 48 49 49 49 50 50 51 53 53 54 54 55 55 56 56 55 53 52 53 53 51 50 50 49 49 48 47 46 46 45 46 45 45 45 46 46 46 47 47 47 47 47 47 48 48 48 48 48 47 45 45 44 45 45 46 46 45 46 46 46 47 48 49 50 53 53 55 57 58 59 61 61 61 61 61
42 42 43 42 42 43 45 45 45 45 46 48 48 48 49 50 51 52 53 53 54 55 55 55 55 54 53 50 50 50 50 50 49 49 47 46 45 44 44 45 45 44 44 44 45 45 46 47 47 47 47 47 47 47 47 47 46 45 44 44 43 43 43 43 44 44 44 44 44 44 45 47 48 50 52 53 55 57 59 60 60 61 62 62 61
42 43 44 45 46 45 44 44 45 46 45 46 47 48 49 49 50 51 52 52 52 53 54 54 52 50 51 49 50 49 50 49 48 49 48 46 44 43 44 44 45 44 44 44 44 45 46 45 46 45 45 44 44 44 45 45 44 44 43 42 42 42 42 43 42 42 42 42 42 43 44 45 47 50 52 54 56 57 58 59 59 59 58 58 58
42 42 42 41 41 41 42 43 45 44 44 45 46 47 48 48 50 50 51 51 50 50 50 50 50 50 50 50 50 50 49 49 46 45 44 44 43 43 42 43 44 43 44 43 43 43 43 44 45 45 43 43 43 43 43 43 43 43 43 42 42 43 41 40 40 40 40 40 40 41 43 45 47 50 51 53 55 56 56 55 55 55 55 55 55
39 40 40 40 40 42 42 42 42 43 44 44 45 45 46 47 48 49 49 49 48 48 48 48 48 47 47 48 48 47 47 47 45 45 43 43 42 43 42 42 42 42 42 41 42 42 42 42 42 42 42 41 41 41 41 41 42 42 42 42 41 39 39 40 41 41 41 41 42 42 44 46 48 50 53 53 53 53 53 53 53 53 53 52 52
39 38 38 39 39 40 40 40 40 41 42 42 43 43 43 43 44 46 46 47 47 46 47 46 45 46 47 46 47 46 46 46 46 45 44 43 43 43 42 41 42 41 41 41 41 41 41 41 41 41 40 40 39 39 39 39 40 41 41 40 38 37 37 37 38 37 38 39 41 45 47 50 52 52 51 51 52 51 51 51 51 50 50 50 49